Regional Weather Roundup
Issued by NWS Upton, NY

Current Version | Previous Version | Text Only | Print | Product List | Glossary On
Versions: 1 2 3 4 5 6 7 8 9 10 11 12 13 14 15 16 17 18 19 20 21 22 23 24 25 26 27 28 29 30 31 32 33 34 35 36 37 38 39 40 41 42 43 44 45 46 47 48 49 50
000
ASUS41 KOKX 211605
RWROKX

REGIONAL WEATHER ROUNDUP
NATIONAL WEATHER SERVICE NEW YORK NY
1200 PM EDT MON JUL 21 2014

NOTE: "FAIR" INDICATES FEW OR NO CLOUDS BELOW 12,000 FEET WITH NO
SIGNIFICANT WEATHER AND/OR OBSTRUCTIONS TO VISIBILITY.

NYZ071-072-176-178-NJZ106-104-211700-
NEW YORK CITY METRO AREA


CITY           SKY/WX    TMP DP  RH WIND       PRES   REMARKS
CENTRAL PARK   SUNNY     79  60  52 NW3       30.22F
LAGUARDIA APRT MOSUNNY   78  62  57 NE5       30.19S
KENNEDY INTL   MOSUNNY   81  57  43 NE7       30.20S
NEWARK/LIBERTY MOSUNNY   81  60  48 N5        30.19F
BRNX BOT. GARD   N/A     79  59  50 NW3       30.19F
TETERBORO      PTSUNNY   81  60  48 CALM      30.18F
$$

NYZ177-179-078>081-211700-
LONG ISLAND NEW YORK

CITY           SKY/WX    TMP DP  RH WIND       PRES   REMARKS
FARMINGDALE    SUNNY     78  60  53 NE6       30.19F
ISLIP          MOSUNNY   79  56  45 N9        30.18F
SHIRLEY        SUNNY     78  54  43 N12       30.20S
WESTHAMPTON    SUNNY     77  58  51 NE9       30.21S
MONTAUK POINT    N/A     72  60  66 VRB3      30.21S
$$

NYZ052-065-067-211700-
HUDSON VALLEY

CITY           SKY/WX    TMP DP  RH WIND       PRES   REMARKS
WHITE PLAINS   MOSUNNY   77  61  57 W6        30.20F
NEWBURGH       NOT AVBL
MONTGOMERY       N/A    N/A N/A N/A MISG      30.19F
POUGHKEEPSIE   SUNNY     79  60  52 VRB5      30.18F
ALBANY         MOSUNNY   78  62  57 S6        30.18F
$$

NJZ001-105-106-008-010-013-015-019>022-104-211700-
NEW JERSEY

CITY           SKY/WX    TMP DP  RH WIND       PRES   REMARKS
NEWARK/LIBERTY MOSUNNY   81  60  48 N5        30.19F
TETERBORO      PTSUNNY   81  60  48 CALM      30.18F
CALDWELL       SUNNY     79  62  56 E3        30.20F
MORRISTOWN     MOSUNNY   81  63  54 CALM      30.20F
SOMERVILLE     SUNNY     79  61  53 NW5       30.18F
LINDEN         FAIR      81  61  49 NW6       30.21S
SUSSEX         MOSUNNY   80  63  55 CALM      30.20F
ANDOVER          N/A     78  62  57 W5        30.21F
TRENTON        SUNNY     78  58  49 NW3       30.19F
MILLVILLE      SUNNY     79  64  60 E6        30.19S
ATLANTIC CITY  SUNNY     78  64  61 CALM      30.19F
WRIGHTSTOWN    SUNNY     78  64  60 NE3       30.18F
TOMS RIVER     MOSUNNY   77  61  57 CALM      30.20F
BELMAR         MOSUNNY   79  61  53 NE3       30.20S
$$

PAZ047>061-062-071-211700-
EASTERN PENNSYLVANIA

CITY           SKY/WX    TMP DP  RH WIND       PRES   REMARKS
PHILADELPHIA   MOSUNNY   82  58  43 E8        30.19F
ALLENTOWN      PTSUNNY   79  61  53 CALM      30.20F
SCRANTON       PTSUNNY   79  63  57 SW6       30.21F
$$

CTZ002-004>006-009-010-012-RIZ004-006-007-MAZ004-011-015-211700-
SOUTHERN NEW ENGLAND
 IN CT

CITY           SKY/WX    TMP DP  RH WIND       PRES   REMARKS
BRADLEY INTL   MOSUNNY   78  56  46 NE5       30.18F
HARTFORD       SUNNY     77  57  50 VRB3      30.19F
DANBURY        MOSUNNY   77  61  57 E3        30.21F
WTRBRY/OXFORD  MOSUNNY   75  61  60 CALM      30.23F
BRIDGEPORT     SUNNY     74  62  66 S9        30.19F
MERIDEN        MOSUNNY   79  58  48 NE8       30.19F
NEW HAVEN      SUNNY     79  58  48 N6        30.19F
CHESTER        FAIR      77  57  50 E5        30.20F
GROTON         SUNNY     77  62  59 N7        30.18F
WILLIMANTIC    SUNNY     78  54  43 N8        30.19F

 IN RI

CITY           SKY/WX    TMP DP  RH WIND       PRES   REMARKS
PROVIDENCE     MOSUNNY   76  61  59 N8        30.20S
BLOCK ISLAND   MOSUNNY   70  63  78 NE10      30.20S
WESTERLY       MOSUNNY   79  60  52 N8        30.19S

 IN MA

CITY           SKY/WX    TMP DP  RH WIND       PRES   REMARKS
BOSTON         MOSUNNY   71  61  70 E6        30.20F
WORCESTER      SUNNY     73  52  47 VRB5      30.22F
WESTFIELD      SUNNY     77  58  51 E3        30.19F
PROVINCETOWN   CLOUDY    66  63  88 CALM      30.20S
NANTUCKET      LGT RAIN  66  64  93 N16G22    30.16R FOG
$$

ANZ330-335-338-340-345-350-353-355-211700-
COASTAL MARINE OBSERVATIONS


STATION/POSITION TIME  SKY/WX   TEMP    WIND        PRES    VSBY  WAVE
                                AIR SEA DIR/SP/G                  HT/PER
                 (UTC)          (F)     (DEG/KT/KT) (MB)    (MI)  (FT/S)
NY HARB ENTRANCE NOT AVBL
4S FIRE IS       NOT AVBL
23SW MTP         1600            67 69              1022.0          3/ 7
HUDSON CANYON    1600            69 72   10/ 12/ 16 1021.7          4/ 6
EXECUTION ROCKS  1600            72 72  110/  4/  6   N/A
WESTERN LI SOUND 1600            70     120/  4/  6   N/A           1
CENTRAL LI SOUND 1500            71 72   CALM  /  2   N/A           0
EASTERN LI SOUND 1500            72 66  210/  2/  4   N/A
ROBBINS REEF     1600            74     100/  4/  5   N/A
$$


>>>>>>>>>>>>>>>>>>>>>>>>>>>> KEY <<<<<<<<<<<<<<<<<<<<<<<<<<<
>                                                          <
>     SKY/WX - SKY CONDITION/PRESENT WEATHER               <
>     TMP    - TEMPERATURE IN FAHRENHEIT                   <
>     DP     - DEWPOINT IN FAHRENHEIT                      <
>     RH     - RELATIVE HUMIDITY IN PERCENT                <
>     WIND   - DIRECTION AND SPEED IN MPH                  <
>     PRES   - MEAN SEA LEVEL PRESSURE IN INCHES OF HG     <
>     WCI    - WIND CHILL INDEX                            <
>     VSB    - VISIBILITY IN MILES                         <
>     HX     - HEAT INDEX                                  <
>     TC     - TEMPERATURE IN CELSIUS                      <
>     VRB    - VARIABLE WIND DIRECTION                     <
>                                                          <
>>>>>>>>>>>>>>>>>>>>>>>>>>>> KEY <<<<<<<<<<<<<<<<<<<<<<<<<<<





USA.gov is the U.S. government's official web portal to all federal, state and local government web resources and services.